When you browse on this site, cookies collect data to enhance your experience and personalize the content and advertising you see.
Visit our Privacy Policy to learn more. By continuing to use the site, you agree to this use of cookies and data.
  • en France
  • Liste des pays
  • À 7 jours
  • Température de l'eau
  • Carte météo
  • Widgets météo
  • user-avatar
    Se connecter

    Météo par heure à Fredericton

    Ce jour, 5 Avril, Dimanche

    Heure Température Précipitation Vent Pression Humidité
    00:00 +1°C° 0 mm 0 m/s 760 mmHg 97%
    01:00 +1°C° 0 mm 0 m/s 760 mmHg 97%
    02:00 0°C° 0 mm 0 m/s 760 mmHg 97%
    03:00 0°C° 0 mm 0 m/s 760 mmHg 97%
    04:00 0°C° 0 mm 0 m/s 760 mmHg 97%
    05:00 0°C° 0 mm 0 m/s 760 mmHg 97%
    06:00 0°C° 0 mm 0 m/s 760 mmHg 94%
    07:00 +1°C° 0 mm 0 m/s 760 mmHg 92%
    08:00 +2°C° 0 mm 0 m/s 761 mmHg 90%
    09:00 +3°C° 0 mm 0 m/s 760 mmHg 87%
    10:00 +4°C° 0 mm 0 m/s 760 mmHg 84%
    11:00 +5°C° 0 mm 0 m/s 759 mmHg 81%
    12:00 +6°C° 0 mm 1 m/s 759 mmHg 80%
    13:00 +7°C° 0 mm 1 m/s 759 mmHg 78%
    14:00 +7°C° 0 mm 1 m/s 759 mmHg 76%
    15:00 +7°C° 0 mm 1 m/s 758 mmHg 77%
    16:00 +7°C° 0 mm 1 m/s 758 mmHg 79%
    17:00 +7°C° 0 mm 1 m/s 758 mmHg 80%
    18:00 +7°C° 0 mm 1 m/s 757 mmHg 83%
    19:00 +5°C° 0 mm 2 m/s 757 mmHg 87%
    20:00 +4°C° 0 mm 2 m/s 757 mmHg 91%
    21:00 +4°C° 0.1 mm 2 m/s 757 mmHg 92%
    22:00 +3°C° 0.1 mm 3 m/s 756 mmHg 93%
    23:00 +3°C° 0.1 mm 3 m/s 756 mmHg 95%

    Demain, 6 Avril, Lundi

    Heure Température Précipitation Vent Pression Humidité
    00:00 +3°C° 0.4 mm 3 m/s 755 mmHg 95%
    01:00 +4°C° 0.4 mm 3 m/s 755 mmHg 96%
    02:00 +4°C° 0.4 mm 3 m/s 754 mmHg 96%
    03:00 +3°C° 0.3 mm 3 m/s 754 mmHg 95%
    04:00 +3°C° 0.3 mm 4 m/s 754 mmHg 93%
    05:00 +3°C° 0.3 mm 4 m/s 754 mmHg 92%
    06:00 +1°C° 0 mm 4 m/s 754 mmHg 87%
    07:00 +1°C° 0 mm 4 m/s 755 mmHg 82%
    08:00 0°C° 0 mm 4 m/s 755 mmHg 77%
    09:00 +1°C° 0 mm 5 m/s 755 mmHg 72%
    10:00 +2°C° 0 mm 5 m/s 755 mmHg 67%
    11:00 +3°C° 0 mm 5 m/s 755 mmHg 62%
    12:00 +5°C° 0 mm 5 m/s 754 mmHg 59%
    13:00 +6°C° 0 mm 5 m/s 754 mmHg 55%
    14:00 +6°C° 0 mm 5 m/s 754 mmHg 52%
    15:00 +6°C° 0 mm 5 m/s 754 mmHg 52%
    16:00 +6°C° 0 mm 5 m/s 753 mmHg 53%
    17:00 +5°C° 0 mm 6 m/s 753 mmHg 53%
    18:00 +3°C° 0.1 mm 5 m/s 754 mmHg 63%
    19:00 +1°C° 0.1 mm 4 m/s 754 mmHg 72%
    20:00 +1°C° 0.1 mm 3 m/s 755 mmHg 81%
    21:00 +1°C° 0 mm 2 m/s 754 mmHg 85%
    22:00 -1°C° 0 mm 2 m/s 754 mmHg 89%
    23:00 -2°C° 0 mm 2 m/s 754 mmHg 92%

    Après-demain, 7 Avril, Mardi

    Heure Température Précipitation Vent Pression Humidité
    00:00 -2°C° 0 mm 2 m/s 754 mmHg 91%
    01:00 -2°C° 0 mm 2 m/s 754 mmHg 90%
    02:00 -3°C° 0 mm 2 m/s 754 mmHg 90%
    03:00 -3°C° 0 mm 2 m/s 754 mmHg 90%
    04:00 -3°C° 0 mm 2 m/s 754 mmHg 90%
    05:00 -3°C° 0 mm 2 m/s 754 mmHg 90%
    06:00 -2°C° 0 mm 3 m/s 754 mmHg 83%
    07:00 -1°C° 0 mm 3 m/s 754 mmHg 75%
    08:00 -1°C° 0 mm 3 m/s 755 mmHg 68%
    09:00 +1°C° 0 mm 3 m/s 754 mmHg 62%
    10:00 +1°C° 0 mm 4 m/s 754 mmHg 56%
    11:00 +3°C° 0 mm 4 m/s 754 mmHg 50%
    12:00 +4°C° 0 mm 3 m/s 754 mmHg 49%
    13:00 +4°C° 0 mm 3 m/s 754 mmHg 48%
    14:00 +5°C° 0 mm 3 m/s 754 mmHg 47%
    15:00 +5°C° 0.1 mm 3 m/s 754 mmHg 49%
    16:00 +5°C° 0.1 mm 3 m/s 754 mmHg 50%
    17:00 +4°C° 0.1 mm 3 m/s 753 mmHg 51%
    18:00 +4°C° 0 mm 2 m/s 754 mmHg 60%
    19:00 +2°C° 0 mm 2 m/s 754 mmHg 69%
    20:00 +1°C° 0 mm 1 m/s 755 mmHg 77%
    21:00 0°C° 0 mm 1 m/s 755 mmHg 81%
    22:00 0°C° 0 mm 1 m/s 755 mmHg 85%
    23:00 -1°C° 0 mm 1 m/s 755 mmHg 89%

    8 Avril, Mercredi

    Heure Température Précipitation Vent Pression Humidité
    00:00 -1°C° 0 mm 1 m/s 755 mmHg 90%
    01:00 -1°C° 0 mm 1 m/s 754 mmHg 91%
    02:00 -1°C° 0 mm 1 m/s 754 mmHg 92%
    03:00 -2°C° 0 mm 1 m/s 754 mmHg 92%
    04:00 -2°C° 0 mm 1 m/s 753 mmHg 92%
    05:00 -3°C° 0 mm 0 m/s 753 mmHg 92%
    06:00 0°C° 0 mm 1 m/s 753 mmHg 82%
    07:00 +1°C° 0 mm 1 m/s 753 mmHg 72%
    08:00 +3°C° 0 mm 1 m/s 753 mmHg 62%
    09:00 +5°C° 0 mm 1 m/s 753 mmHg 52%
    10:00 +7°C° 0 mm 1 m/s 752 mmHg 42%
    11:00 +8°C° 0 mm 1 m/s 752 mmHg 32%
    12:00 +9°C° 0 mm 1 m/s 751 mmHg 32%
    13:00 +9°C° 0 mm 0 m/s 751 mmHg 31%
    14:00 +10°C° 0 mm 0 m/s 750 mmHg 31%
    15:00 +10°C° 0 mm 0 m/s 750 mmHg 33%
    16:00 +9°C° 0 mm 0 m/s 750 mmHg 34%
    17:00 +8°C° 0 mm 0 m/s 750 mmHg 36%
    18:00 +7°C° 0 mm 1 m/s 750 mmHg 48%
    19:00 +4°C° 0 mm 2 m/s 751 mmHg 60%
    20:00 +1°C° 0 mm 2 m/s 751 mmHg 72%
    21:00 -1°C° 0 mm 3 m/s 751 mmHg 77%
    22:00 -2°C° 0 mm 3 m/s 751 mmHg 81%
    23:00 -4°C° 0 mm 3 m/s 752 mmHg 85%

    9 Avril, Jeudi

    Heure Température Précipitation Vent Pression Humidité
    00:00 -4°C° 0 mm 3 m/s 751 mmHg 84%
    01:00 -5°C° 0 mm 3 m/s 751 mmHg 83%
    02:00 -4°C° 0 mm 2 m/s 751 mmHg 82%
    03:00 -4°C° 0 mm 2 m/s 751 mmHg 80%
    04:00 -4°C° 0 mm 2 m/s 751 mmHg 79%
    05:00 -5°C° 0 mm 2 m/s 751 mmHg 78%
    06:00 -4°C° 0 mm 2 m/s 751 mmHg 73%
    07:00 -4°C° 0 mm 3 m/s 751 mmHg 68%
    08:00 -2°C° 0 mm 3 m/s 751 mmHg 63%
    09:00 0°C° 0 mm 3 m/s 750 mmHg 60%
    10:00 +2°C° 0 mm 3 m/s 750 mmHg 56%
    11:00 +4°C° 0 mm 4 m/s 749 mmHg 53%
    12:00 +5°C° 0 mm 4 m/s 748 mmHg 55%
    13:00 +6°C° 0 mm 4 m/s 747 mmHg 57%
    14:00 +6°C° 0 mm 5 m/s 746 mmHg 58%
    15:00 +5°C° 0.6 mm 5 m/s 745 mmHg 69%
    16:00 +4°C° 0.6 mm 4 m/s 745 mmHg 79%
    17:00 +4°C° 0.6 mm 4 m/s 744 mmHg 89%
    18:00 +1°C° 1.6 mm 5 m/s 743 mmHg 91%
    19:00 -1°C° 1.6 mm 6 m/s 742 mmHg 94%
    20:00 -2°C° 1.6 mm 6 m/s 741 mmHg 97%
    21:00 -2°C° 2.6 mm 6 m/s 740 mmHg 97%
    22:00 -3°C° 2.6 mm 6 m/s 738 mmHg 97%
    23:00 -3°C° 2.6 mm 6 m/s 737 mmHg 97%

    10 Avril, Vendredi

    Heure Température Précipitation Vent Pression Humidité
    00:00 -3°C° 3.2 mm 6 m/s 736 mmHg 97%
    01:00 -2°C° 3.2 mm 6 m/s 735 mmHg 97%
    02:00 -2°C° 3.2 mm 6 m/s 733 mmHg 97%
    03:00 -2°C° 2.7 mm 5 m/s 733 mmHg 96%
    04:00 -2°C° 2.7 mm 5 m/s 733 mmHg 95%
    05:00 -4°C° 2.7 mm 5 m/s 733 mmHg 94%
    06:00 -2°C° 0.1 mm 5 m/s 734 mmHg 93%
    07:00 -2°C° 0.1 mm 5 m/s 734 mmHg 92%
    08:00 -1°C° 0.1 mm 5 m/s 735 mmHg 92%
    09:00 -2°C° 0.1 mm 6 m/s 735 mmHg 93%
    10:00 -1°C° 0.1 mm 6 m/s 736 mmHg 94%
    11:00 -1°C° 0.1 mm 6 m/s 736 mmHg 95%
    12:00 +1°C° 0.2 mm 6 m/s 736 mmHg 93%
    13:00 +2°C° 0.2 mm 6 m/s 737 mmHg 92%
    14:00 +2°C° 0.2 mm 6 m/s 737 mmHg 91%
    15:00 +2°C° 0.4 mm 5 m/s 737 mmHg 90%
    16:00 +3°C° 0.4 mm 4 m/s 737 mmHg 90%
    17:00 +3°C° 0.4 mm 4 m/s 738 mmHg 89%
    18:00 +1°C° 0.1 mm 3 m/s 738 mmHg 91%
    19:00 0°C° 0.1 mm 3 m/s 738 mmHg 92%
    20:00 -1°C° 0.1 mm 2 m/s 739 mmHg 94%
    21:00 -2°C° 0 mm 3 m/s 739 mmHg 93%
    22:00 -2°C° 0 mm 3 m/s 739 mmHg 92%
    23:00 -3°C° 0 mm 4 m/s 740 mmHg 92%
    Voir plus